{"data":{"norad_id":47641,"intl_designator":"2021-012X","name":"STARLINK-2019","alt_names":[],"object_type":"PAYLOAD","status":"ACTIVE","operator":null,"country":"US","launch_date":"2021-02-16","launch_site_code":"AFETR","launch_vehicle":null,"mission":null,"orbit_class":"UNKNOWN","rcs_meters":null,"size_class":null,"mass_kg":null,"dimensions":null,"purposes":["comms"],"wikipedia_slug":null,"has_3d_model":false,"image_url":null,"decayed_at":null,"tle_current":{"epoch":"2026-08-09T06:34:36.375168Z","epoch_age_seconds":3673996,"freshness":"OLD","line1":"1 47641U 21012X   26221.27403212  .04680537  12311-4  51996-3 0  9990","line2":"2 47641  53.0159 258.5759 0005744 334.9676  25.1089 16.36344053305879","mean_motion":16.36344053,"eccentricity":0.0005744,"inclination_deg":53.0159,"raan_deg":258.5759,"arg_perigee_deg":334.9676,"mean_anomaly_deg":25.1089,"bstar":0.00051996,"rev_number":30587,"period_min":88.001053162382,"perigee_km":171.78149690602,"apogee_km":179.31036785875,"semimajor_km":6553.6829323824,"source":"CELESTRAK","updated_at":"2026-08-09T09:00:58.971887Z"}}}